Flag for Greenland Weather past 2 weeks in Danmarkshavn, Greenland

Now
30 °F

Partly sunny.


Feels Like: 25 °F
Forecast: N/A
Wind: 5 mph from South

Location: Danmarkshavn

Current Time: Aug 30, 2015 at 8:56:58 PM

Latest Report: Aug 30, 2015 at 7:00 PM


Visibility: 31 mi

Pressure: 30.06 "Hg

Humidity: 82%

Dew point: 25 °F

Location of DanmarkshavnLocation

Historic Weather in Danmarkshavn — Graph

°F

Danmarkshavn temperature yesterday

Maximum temperature yesterday: 30 °F (at 12:00 AM)
Minimum temperature yesterday: 24 °F (at 2:00 PM)
Average temperature yesterday: 27 °F

Past Weeks' High & Low Weather Summary

 TemperatureHumidityPressure
High46 °F (Aug 20, 5:00 PM)100% (Aug 16, 4:00 AM)30.34 "Hg (Aug 16, 4:00 AM)
Low24 °F (Aug 29, 2:00 PM)44% (Aug 26, 12:00 PM)29.50 "Hg (Aug 18, 2:00 AM)
Average35 °F84%30.05 "Hg
* Reported Aug 15 6:00 PM — Aug 30 6:00 PM, Danmarkshavn, Weather by CustomWeather, © 2015

Note: Actual official high and low records may vary slightly from our data, if they occured in-between our weather recording intervals... More about our weather records

Advertising

Danmarkshavn weather history for previous 24 hours

 ConditionsComfort  
Time TempWeatherWind HumidityBarometerVisibility
6:00 PM
Sun, Aug 30
31 °FSunny.5 mph82%30.06 "Hg31 mi
5:00 PM31 °FPartly sunny.6 mph76%30.07 "Hg31 mi
4:00 PM31 °FPassing clouds.5 mph75%30.06 "Hg31 mi
3:00 PM31 °FScattered clouds.7 mph79%30.06 "Hg31 mi
2:00 PM31 °FPassing clouds.5 mph79%30.06 "Hg28 mi
1:00 PM31 °FPassing clouds.3 mph79%30.06 "Hg22 mi
12:00 PM31 °FScattered clouds.3 mph79%30.06 "Hg28 mi
11:00 AM30 °FOvercast.5 mph84%30.04 "Hg31 mi
10:00 AM29 °FPartly sunny.8 mph83%30.03 "Hg31 mi
9:00 AM30 °FScattered clouds.5 mph81%30.03 "Hg28 mi
8:00 AM29 °FLow clouds.6 mph88%30.02 "Hg28 mi
7:00 AM29 °FOvercast.3 mph90%30.01 "Hg31 mi
6:00 AM29 °FLow clouds.5 mph90%30.00 "Hg31 mi
5:00 AM29 °FOvercast.7 mph89%29.99 "Hg31 mi
4:00 AM28 °FOvercast.10 mph90%29.98 "Hg31 mi
3:00 AM28 °FPassing clouds.8 mph88%29.97 "Hg31 mi
2:00 AM26 °FOvercast.5 mph92%29.97 "Hg31 mi
1:00 AM26 °FLow clouds.2 mph92%29.97 "Hg31 mi
12:00 AM26 °FLow clouds.1 mph91%29.96 "Hg31 mi
11:00 PM
Sat, Aug 29
25 °FSnow flurries. Low clouds.2 mph91%29.96 "Hg14 mi
10:00 PM26 °FSnow flurries. Low clouds.2 mph91%29.96 "Hg8 mi
8:00 PM26 °FLight snow. Low clouds.8 mph92%29.93 "Hg11 mi
Weather by CustomWeather, © 2015

See weather overviewHow to use our weather pages